Station Historical Data
Daily Summary for February 13, 2017 Units:  Metric    English   Both
« Previous Day
Next Day »
Daily Weekly Monthly Yearly Custom
  High: Low: Average:
Temperature: -0.7 °C -4.6 °C -1.8 °C
Dew Point: -4.8 °C -7.1 °C -5.9 °C
Humidity: 83% 67% 74%
Wind Speed: 27.4km/h 0km/h 10.3km/h
Wind Gust: 40.2km/h - -
Wind- - WNW
Pressure: 1021.2 hPa 1011.7 hPa -
Precipitation: 0 mm    
Historical Graphs
 
 
Tabular Data for February 13, 2017
Time Temperature Dew Point Pressure Wind Wind Speed Wind Gust Humidity Rainfall Rate (Hourly)
00:04 -1.1 °C -4.9 °C 1011.7 hPa WNW 22.5 km/h 35.4 km/h 75% 0 mm
00:09 -1.1 °C -5.2 °C 1011.7 hPa West 27.4 km/h 33.8 km/h 74% 0 mm
00:14 -1.1 °C -5 °C 1011.7 hPa WNW 11.3 km/h 35.4 km/h 75% 0 mm
00:19 -1.2 °C -5.2 °C 1011.7 hPa WNW 17.7 km/h 35.4 km/h 74% 0 mm
00:24 -1.2 °C -5.3 °C 1011.7 hPa West 17.7 km/h 35.4 km/h 74% 0 mm
00:29 -1.2 °C -5.3 °C 1012.1 hPa West 16.1 km/h 32.2 km/h 74% 0 mm
00:34 -1.3 °C -5.2 °C 1012.1 hPa WNW 11.3 km/h 30.6 km/h 75% 0 mm
00:39 -1.3 °C -5.2 °C 1012.1 hPa WSW 22.5 km/h 30.6 km/h 75% 0 mm
00:44 -1.3 °C -5.4 °C 1012.1 hPa West 14.5 km/h 30.6 km/h 74% 0 mm
00:49 -1.4 °C -5.2 °C 1012.1 hPa WNW 17.7 km/h 32.2 km/h 75% 0 mm
00:54 -1.4 °C -5.4 °C 1012.1 hPa West 16.1 km/h 32.2 km/h 74% 0 mm
00:59 -1.4 °C -5.5 °C 1012.4 hPa West 17.7 km/h 40.2 km/h 74% 0 mm
01:04 -1.4 °C -5.5 °C 1012.4 hPa West 17.7 km/h 40.2 km/h 74% 0 mm
01:09 -1.4 °C -5.5 °C 1012.4 hPa WNW 12.9 km/h 25.7 km/h 74% 0 mm
01:14 -1.5 °C -5.6 °C 1012.4 hPa WNW 17.7 km/h 29 km/h 74% 0 mm
01:19 -1.5 °C -5.3 °C 1012.4 hPa WNW 6.4 km/h 25.7 km/h 75% 0 mm
01:24 -1.5 °C -5.6 °C 1012.4 hPa West 14.5 km/h 29 km/h 74% 0 mm
01:29 -1.5 °C -5.6 °C 1012.8 hPa West 16.1 km/h 30.6 km/h 74% 0 mm
01:34 -1.6 °C -5.6 °C 1012.8 hPa West 17.7 km/h 33.8 km/h 74% 0 mm
01:39 -1.6 °C -5.4 °C 1012.8 hPa West 20.9 km/h 30.6 km/h 75% 0 mm
01:44 -1.6 °C -5.4 °C 1012.8 hPa WNW 12.9 km/h 29 km/h 75% 0 mm
01:49 -1.6 °C -5.4 °C 1012.8 hPa West 12.9 km/h 30.6 km/h 75% 0 mm
01:54 -1.6 °C -5.4 °C 1013.1 hPa West 16.1 km/h 30.6 km/h 75% 0 mm
01:59 -1.6 °C -5.3 °C 1013.1 hPa WNW 14.5 km/h 29 km/h 76% 0 mm
02:04 -1.7 °C -5.3 °C 1013.1 hPa WNW 16.1 km/h 38.6 km/h 76% 0 mm
02:09 -1.6 °C -5.3 °C 1013.1 hPa WNW 8 km/h 25.7 km/h 76% 0 mm
02:14 -1.7 °C -5.3 °C 1013.1 hPa West 14.5 km/h 30.6 km/h 76% 0 mm
02:19 -1.7 °C -5.3 °C 1013.4 hPa West 9.7 km/h 25.7 km/h 76% 0 mm
02:24 -1.7 °C -5.3 °C 1013.4 hPa WNW 20.9 km/h 30.6 km/h 76% 0 mm
02:29 -1.6 °C -5.3 °C 1013.4 hPa West 14.5 km/h 30.6 km/h 76% 0 mm
02:34 -1.6 °C -5.1 °C 1013.8 hPa West 11.3 km/h 29 km/h 77% 0 mm
02:39 -1.6 °C -5.1 °C 1013.8 hPa SW 6.4 km/h 30.6 km/h 77% 0 mm
02:44 -1.6 °C -5.1 °C 1014.1 hPa West 17.7 km/h 33.8 km/h 77% 0 mm
02:49 -1.6 °C -5.1 °C 1014.1 hPa WNW 16.1 km/h 33.8 km/h 77% 0 mm
02:54 -1.6 °C -5.1 °C 1013.8 hPa West 14.5 km/h 37 km/h 77% 0 mm
02:59 -1.6 °C -5.1 °C 1014.1 hPa NW 14.5 km/h 25.7 km/h 77% 0 mm
03:04 -1.6 °C -5.1 °C 1014.1 hPa West 16.1 km/h 29 km/h 77% 0 mm
03:09 -1.6 °C -5.1 °C 1014.1 hPa West 16.1 km/h 29 km/h 77% 0 mm
03:14 -1.6 °C -5.1 °C 1014.1 hPa West 14.5 km/h 29 km/h 77% 0 mm
03:19 -1.6 °C -5.1 °C 1014.4 hPa WNW 27.4 km/h 32.2 km/h 77% 0 mm
03:24 -1.6 °C -5.1 °C 1014.4 hPa West 24.1 km/h 29 km/h 77% 0 mm
03:29 -1.5 °C -5 °C 1014.4 hPa West 12.9 km/h 25.7 km/h 77% 0 mm
03:34 -1.5 °C -5 °C 1014.4 hPa WNW 16.1 km/h 30.6 km/h 77% 0 mm
03:39 -1.4 °C -4.9 °C 1014.4 hPa NNW 22.5 km/h 29 km/h 77% 0 mm
03:44 -1.5 °C -5 °C 1014.8 hPa West 14.5 km/h 25.7 km/h 77% 0 mm
03:49 -1.4 °C -4.9 °C 1014.8 hPa WNW 9.7 km/h 32.2 km/h 77% 0 mm
03:54 -1.5 °C -5 °C 1014.8 hPa West 17.7 km/h 29 km/h 77% 0 mm
03:59 -1.5 °C -5 °C 1015.1 hPa WNW 11.3 km/h 27.4 km/h 77% 0 mm
04:04 -1.4 °C -4.9 °C 1015.1 hPa West 12.9 km/h 27.4 km/h 77% 0 mm
04:09 -1.5 °C -5 °C 1015.1 hPa West 12.9 km/h 24.1 km/h 77% 0 mm
04:14 -1.5 °C -5 °C 1015.1 hPa West 14.5 km/h 30.6 km/h 77% 0 mm
04:19 -1.5 °C -5 °C 1015.1 hPa West 14.5 km/h 30.6 km/h 77% 0 mm
04:24 -1.5 °C -4.8 °C 1015.5 hPa WNW 8 km/h 32.2 km/h 78% 0 mm
04:29 -1.5 °C -5 °C 1015.5 hPa West 9.7 km/h 33.8 km/h 77% 0 mm
04:35 -1.5 °C -4.8 °C 1015.5 hPa West 14.5 km/h 33.8 km/h 78% 0 mm
04:44 -1.6 °C -4.9 °C 1015.8 hPa West 9.7 km/h 27.4 km/h 78% 0 mm
04:49 -1.6 °C -4.9 °C 1015.8 hPa WNW 16.1 km/h 25.7 km/h 78% 0 mm
04:54 -1.6 °C -4.9 °C 1015.8 hPa WNW 6.4 km/h 20.9 km/h 78% 0 mm
04:59 -1.6 °C -4.9 °C 1016.1 hPa West 11.3 km/h 20.9 km/h 78% 0 mm
05:04 -1.6 °C -4.9 °C 1016.1 hPa West 6.4 km/h 20.9 km/h 78% 0 mm
05:09 -1.6 °C -4.9 °C 1016.1 hPa West 11.3 km/h 20.9 km/h 78% 0 mm
05:14 -1.6 °C -4.9 °C 1016.5 hPa WNW 12.9 km/h 25.7 km/h 78% 0 mm
05:19 -1.6 °C -4.9 °C 1016.5 hPa West 12.9 km/h 25.7 km/h 78% 0 mm
05:24 -1.6 °C -5.1 °C 1016.5 hPa WSW 17.7 km/h 24.1 km/h 77% 0 mm
05:29 -1.6 °C -5.1 °C 1016.5 hPa West 9.7 km/h 24.1 km/h 77% 0 mm
05:34 -1.6 °C -5.1 °C 1016.8 hPa WNW 17.7 km/h 20.9 km/h 77% 0 mm
05:39 -1.6 °C -5.2 °C 1016.8 hPa WSW 11.3 km/h 24.1 km/h 76% 0 mm
05:44 -1.6 °C -5.4 °C 1016.8 hPa WNW 12.9 km/h 24.1 km/h 75% 0 mm
05:49 -1.6 °C -5.7 °C 1016.8 hPa NW 12.9 km/h 19.3 km/h 74% 0 mm
05:54 -1.6 °C -5.8 °C 1016.8 hPa WNW 12.9 km/h 27.4 km/h 73% 0 mm
05:59 -1.6 °C -5.8 °C 1016.8 hPa WNW 12.9 km/h 27.4 km/h 73% 0 mm
06:04 -1.6 °C -5.6 °C 1016.8 hPa WNW 19.3 km/h 20.9 km/h 74% 0 mm
06:09 -1.6 °C -5.4 °C 1017.2 hPa NW 16.1 km/h 22.5 km/h 75% 0 mm
06:14 -1.6 °C -5.4 °C 1017.2 hPa West 16.1 km/h 24.1 km/h 75% 0 mm
06:19 -1.6 °C -5.4 °C 1017.2 hPa West 9.7 km/h 24.1 km/h 75% 0 mm
06:24 -1.7 °C -5.5 °C 1017.2 hPa West 11.3 km/h 25.7 km/h 75% 0 mm
06:29 -1.7 °C -5.6 °C 1017.5 hPa West 6.4 km/h 25.7 km/h 75% 0 mm
06:34 -1.7 °C -5.6 °C 1017.5 hPa NW 11.3 km/h 20.9 km/h 75% 0 mm
06:39 -1.8 °C -5.8 °C 1017.5 hPa West 12.9 km/h 22.5 km/h 74% 0 mm
06:44 -1.7 °C -5.7 °C 1017.5 hPa West 16.1 km/h 19.3 km/h 74% 0 mm
06:49 -1.8 °C -6 °C 1017.5 hPa West 12.9 km/h 27.4 km/h 73% 0 mm
06:54 -1.8 °C -6.1 °C 1017.8 hPa WNW 14.5 km/h 30.6 km/h 73% 0 mm
06:59 -1.8 °C -6.2 °C 1017.8 hPa NW 17.7 km/h 32.2 km/h 72% 0 mm
07:04 -1.9 °C -6.3 °C 1017.8 hPa West 11.3 km/h 24.1 km/h 72% 0 mm
07:09 -1.9 °C -6.3 °C 1018.2 hPa West 12.9 km/h 30.6 km/h 72% 0 mm
07:14 -1.9 °C -6.3 °C 1018.2 hPa West 11.3 km/h 22.5 km/h 72% 0 mm
07:19 -2 °C -6.4 °C 1018.2 hPa WNW 9.7 km/h 30.6 km/h 72% 0 mm
07:24 -2 °C -6.4 °C 1018.2 hPa WNW 12.9 km/h 30.6 km/h 72% 0 mm
07:29 -2.1 °C -6.4 °C 1018.2 hPa WNW 12.9 km/h 25.7 km/h 72% 0 mm
07:35 -2.1 °C -6.4 °C 1018.2 hPa WNW 11.3 km/h 24.1 km/h 72% 0 mm
07:44 -2.1 °C -6.3 °C 1018.5 hPa WNW 11.3 km/h 24.1 km/h 73% 0 mm
07:49 -2.1 °C -6.3 °C 1018.5 hPa NW 11.3 km/h 20.9 km/h 73% 0 mm
07:54 -2.2 °C -6.2 °C 1018.8 hPa West 12.9 km/h 27.4 km/h 74% 0 mm
07:59 -2.2 °C -6.2 °C 1018.8 hPa WNW 12.9 km/h 24.1 km/h 74% 0 mm
08:04 -2.2 °C -6.2 °C 1018.8 hPa West 12.9 km/h 24.1 km/h 74% 0 mm
08:09 -2.2 °C -6.1 °C 1019.2 hPa WNW 14.5 km/h 25.7 km/h 75% 0 mm
08:14 -2.3 °C -5.9 °C 1019.2 hPa WNW 12.9 km/h 25.7 km/h 76% 0 mm
08:19 -2.3 °C -6.1 °C 1019.2 hPa WNW 6.4 km/h 22.5 km/h 75% 0 mm
08:24 -2.3 °C -6.1 °C 1019.5 hPa West 9.7 km/h 19.3 km/h 75% 0 mm
08:29 -2.3 °C -6.3 °C 1019.5 hPa WNW 6.4 km/h 22.5 km/h 74% 0 mm
08:34 -2.3 °C -6.3 °C 1019.5 hPa WNW 11.3 km/h 22.5 km/h 74% 0 mm
08:39 -2.3 °C -6.3 °C 1019.5 hPa WNW 11.3 km/h 24.1 km/h 74% 0 mm
08:44 -2.4 °C -6.6 °C 1019.5 hPa WNW 3.2 km/h 27.4 km/h 73% 0 mm
08:49 -2.4 °C -6.4 °C 1019.9 hPa WNW 6.4 km/h 19.3 km/h 74% 0 mm
08:54 -2.4 °C -6.6 °C 1019.9 hPa NW 16.1 km/h 25.7 km/h 73% 0 mm
08:59 -2.4 °C -6.6 °C 1019.5 hPa WNW 11.3 km/h 25.7 km/h 73% 0 mm
09:04 -2.4 °C -6.6 °C 1019.5 hPa WNW 12.9 km/h 29 km/h 73% 0 mm
09:09 -2.5 °C -6.8 °C 1019.9 hPa NW 12.9 km/h 29 km/h 72% 0 mm
09:14 -2.5 °C -6.7 °C 1019.9 hPa West 4.8 km/h 20.9 km/h 73% 0 mm
09:19 -2.5 °C -6.7 °C 1019.9 hPa WNW 9.7 km/h 22.5 km/h 73% 0 mm
09:24 -2.5 °C -6.7 °C 1020.2 hPa NW 11.3 km/h 22.5 km/h 73% 0 mm
09:29 -2.6 °C -6.9 °C 1020.2 hPa NNW 9.7 km/h 33.8 km/h 72% 0 mm
09:34 -2.6 °C -6.9 °C 1020.2 hPa WNW 11.3 km/h 33.8 km/h 72% 0 mm
09:39 -2.6 °C -6.9 °C 1020.2 hPa NNW 11.3 km/h 24.1 km/h 72% 0 mm
09:44 -2.5 °C -6.8 °C 1020.2 hPa WNW 20.9 km/h 20.9 km/h 72% 0 mm
09:49 -2.4 °C -7 °C 1020.2 hPa WNW 6.4 km/h 35.4 km/h 71% 0 mm
09:54 -2.4 °C -6.9 °C 1020.5 hPa NW 12.9 km/h 20.9 km/h 71% 0 mm
09:59 -2.3 °C -6.7 °C 1020.5 hPa NW 9.7 km/h 20.9 km/h 72% 0 mm
10:04 -2.2 °C -6.8 °C 1020.5 hPa WNW 4.8 km/h 19.3 km/h 71% 0 mm
10:09 -2.1 °C -6.7 °C 1020.5 hPa WNW 9.7 km/h 19.3 km/h 71% 0 mm
10:14 -2 °C -6.6 °C 1020.5 hPa WNW 9.7 km/h 19.3 km/h 71% 0 mm
10:19 -1.9 °C -6.5 °C 1020.5 hPa WNW 9.7 km/h 20.9 km/h 71% 0 mm
10:24 -1.9 °C -6.5 °C 1020.5 hPa WNW 12.9 km/h 25.7 km/h 71% 0 mm
10:29 -2.1 °C -6.6 °C 1020.5 hPa WNW 14.5 km/h 25.7 km/h 71% 0 mm
10:34 -2.1 °C -6.5 °C 1020.5 hPa NW 9.7 km/h 25.7 km/h 72% 0 mm
10:39 -2.1 °C -6.5 °C 1020.9 hPa WNW 9.7 km/h 22.5 km/h 72% 0 mm
10:44 -1.8 °C -6.4 °C 1020.9 hPa WNW 12.9 km/h 22.5 km/h 71% 0 mm
10:49 -1.8 °C -6.6 °C 1020.9 hPa West 14.5 km/h 24.1 km/h 70% 0 mm
10:54 -1.8 °C -6.6 °C 1020.9 hPa WNW 12.9 km/h 27.4 km/h 70% 0 mm
10:59 -1.8 °C -6.7 °C 1020.9 hPa WNW 14.5 km/h 27.4 km/h 69% 0 mm
11:04 -1.7 °C -6.2 °C 1020.9 hPa WNW 14.5 km/h 30.6 km/h 71% 0 mm
11:09 -1.5 °C -6.1 °C 1020.9 hPa NNW 12.9 km/h 30.6 km/h 71% 0 mm
11:14 -1.7 °C -6.6 °C 1020.9 hPa WNW 14.5 km/h 25.7 km/h 69% 0 mm
11:19 -1.3 °C -6.1 °C 1020.9 hPa WNW 14.5 km/h 25.7 km/h 70% 0 mm
11:24 -0.8 °C -5.9 °C 1020.9 hPa WNW 11.3 km/h 24.1 km/h 68% 0 mm
11:29 -0.8 °C -6.2 °C 1020.9 hPa WNW 9.7 km/h 24.1 km/h 67% 0 mm
11:34 -0.7 °C -5.8 °C 1021.2 hPa WNW 11.3 km/h 24.1 km/h 68% 0 mm
11:39 -1 °C -5.8 °C 1020.9 hPa WNW 6.4 km/h 19.3 km/h 70% 0.25 mm
11:44 -0.8 °C -5.8 °C 1020.9 hPa West 9.7 km/h 22.5 km/h 69% 0.25 mm
11:49 -1.2 °C -6.3 °C 1020.9 hPa NNW 9.7 km/h 29 km/h 68% 0.25 mm
11:54 -1.1 °C -6.1 °C 1020.9 hPa West 14.5 km/h 19.3 km/h 69% 0.25 mm
11:59 -1.2 °C -6.1 °C 1020.9 hPa NW 11.3 km/h 20.9 km/h 69% 0.25 mm
12:04 -1.3 °C -6.4 °C 1020.9 hPa NW 6.4 km/h 19.3 km/h 68% 0.25 mm
12:09 -1.1 °C -6.1 °C 1020.9 hPa WNW 20.9 km/h 20.9 km/h 69% 0.25 mm
12:14 -1.3 °C -6.6 °C 1020.9 hPa NW 9.7 km/h 24.1 km/h 67% 0.25 mm
12:19 -1.4 °C -6.6 °C 1020.9 hPa NW 17.7 km/h 29 km/h 68% 0.25 mm
12:24 -1.5 °C -6.4 °C 1020.9 hPa NW 11.3 km/h 29 km/h 69% 0.25 mm
12:29 -1.6 °C -6.6 °C 1020.9 hPa NW 11.3 km/h 24.1 km/h 69% 0.25 mm
12:34 -1.6 °C -6.6 °C 1020.9 hPa WNW 11.3 km/h 24.1 km/h 69% 0.25 mm
12:39 -1.7 °C -6.4 °C 1020.9 hPa NNW 9.7 km/h 24.1 km/h 70% 0 mm
12:44 -1.6 °C -6.3 °C 1020.5 hPa WSW 9.7 km/h 25.7 km/h 70% 0 mm
12:49 -1.4 °C -6.2 °C 1020.9 hPa West 14.5 km/h 25.7 km/h 70% 0 mm
12:54 -1.2 °C -5.8 °C 1020.9 hPa WNW 11.3 km/h 25.7 km/h 71% 0 mm
12:59 -1.6 °C -6.1 °C 1020.9 hPa WNW 12.9 km/h 25.7 km/h 71% 0 mm
13:04 -1.7 °C -5.9 °C 1020.5 hPa WNW 12.9 km/h 24.1 km/h 73% 0 mm
13:09 -1.6 °C -5.6 °C 1020.9 hPa WNW 11.3 km/h 24.1 km/h 74% 0.25 mm
13:14 -1.7 °C -5.7 °C 1020.5 hPa WNW 11.3 km/h 22.5 km/h 74% 0.25 mm
13:19 -1.8 °C -5.8 °C 1020.9 hPa NW 11.3 km/h 22.5 km/h 74% 0.25 mm
13:24 -1.8 °C -5.6 °C 1020.9 hPa West 9.7 km/h 22.5 km/h 75% 0.25 mm
13:29 -1.8 °C -6 °C 1020.5 hPa WNW 11.3 km/h 24.1 km/h 73% 0.25 mm
13:34 -1.7 °C -5.9 °C 1020.5 hPa WNW 12.9 km/h 24.1 km/h 73% 0.25 mm
13:39 -1.9 °C -6.1 °C 1020.5 hPa WNW 12.9 km/h 22.5 km/h 73% 0.25 mm
13:44 -1.8 °C -6.2 °C 1020.5 hPa West 9.7 km/h 22.5 km/h 72% 0.25 mm
13:49 -1.8 °C -5.8 °C 1020.5 hPa West 12.9 km/h 19.3 km/h 74% 0.25 mm
13:54 -1.8 °C -6.2 °C 1020.5 hPa West 17.7 km/h 30.6 km/h 72% 0.25 mm
13:59 -1.8 °C -6 °C 1020.5 hPa West 9.7 km/h 24.1 km/h 73% 0.25 mm
14:04 -1.7 °C -6.2 °C 1020.5 hPa WNW 12.9 km/h 25.7 km/h 71% 0.25 mm
14:09 -1.8 °C -6.2 °C 1020.5 hPa WNW 16.1 km/h 25.7 km/h 72% 0 mm
14:14 -1.9 °C -6.3 °C 1020.5 hPa WNW 14.5 km/h 25.7 km/h 72% 0 mm
14:19 -1.7 °C -6.3 °C 1020.5 hPa WNW 11.3 km/h 24.1 km/h 71% 0 mm
14:24 -1.7 °C -6.8 °C 1020.5 hPa WNW 11.3 km/h 29 km/h 68% 0 mm
14:29 -1.8 °C -6.9 °C 1020.5 hPa WNW 12.9 km/h 33.8 km/h 68% 0 mm
14:34 -1.8 °C -6.7 °C 1020.5 hPa NW 11.3 km/h 27.4 km/h 69% 0 mm
14:39 -1.7 °C -6.5 °C 1020.5 hPa WNW 14.5 km/h 29 km/h 70% 0 mm
14:44 -1.7 °C -6.7 °C 1020.5 hPa NNW 12.9 km/h 25.7 km/h 69% 0 mm
14:49 -1.7 °C -6.4 °C 1020.5 hPa WNW 12.9 km/h 25.7 km/h 70% 0 mm
14:54 -1.7 °C -6.2 °C 1020.9 hPa WNW 8 km/h 22.5 km/h 71% 0 mm
14:59 -1.6 °C -6.2 °C 1020.5 hPa WNW 11.3 km/h 20.9 km/h 71% 0 mm
15:04 -1.5 °C -5.9 °C 1020.5 hPa NNW 9.7 km/h 19.3 km/h 72% 0 mm
15:09 -1.5 °C -5.9 °C 1020.5 hPa WNW 8 km/h 25.7 km/h 72% 0 mm
15:14 -1.4 °C -5.8 °C 1020.5 hPa WNW 9.7 km/h 25.7 km/h 72% 0 mm
15:19 -1.6 °C -5.9 °C 1020.5 hPa WNW 9.7 km/h 22.5 km/h 72% 0 mm
15:24 -1.5 °C -5.9 °C 1020.5 hPa WNW 8 km/h 20.9 km/h 72% 0 mm
15:29 -1.5 °C -5.7 °C 1020.5 hPa West 9.7 km/h 14.5 km/h 73% 0 mm
15:34 -1.6 °C -5.9 °C 1020.5 hPa WNW 9.7 km/h 19.3 km/h 72% 0 mm
15:39 -1.7 °C -6.1 °C 1020.5 hPa West 11.3 km/h 20.9 km/h 72% 0 mm
15:44 -1.7 °C -6.1 °C 1020.5 hPa West 6.4 km/h 16.1 km/h 72% 0 mm
15:49 -1.7 °C -5.9 °C 1020.5 hPa West 3.2 km/h 14.5 km/h 73% 0 mm
15:54 -1.6 °C -5.8 °C 1020.2 hPa West 6.4 km/h 14.5 km/h 73% 0 mm
15:59 -1.6 °C -5.9 °C 1020.2 hPa West 6.4 km/h 14.5 km/h 72% 0 mm
16:04 -1.6 °C -5.9 °C 1020.2 hPa West 9.7 km/h 17.7 km/h 72% 0 mm
16:09 -1.6 °C -5.9 °C 1020.2 hPa WNW 16.1 km/h 20.9 km/h 72% 0 mm
16:14 -1.6 °C -5.9 °C 1020.2 hPa West 12.9 km/h 20.9 km/h 72% 0 mm
16:19 -1.5 °C -5.9 °C 1020.2 hPa West 11.3 km/h 16.1 km/h 72% 0 mm
16:24 -1.4 °C -5.7 °C 1019.9 hPa WSW 8 km/h 11.3 km/h 73% 0 mm
16:29 -1.4 °C -5.8 °C 1019.9 hPa West 6.4 km/h 11.3 km/h 72% 0 mm
16:34 -1.4 °C -5.8 °C 1019.9 hPa West 12.9 km/h 16.1 km/h 72% 0 mm
16:39 -1.4 °C -5.7 °C 1019.9 hPa West 6.4 km/h 12.9 km/h 73% 0 mm
16:44 -1.4 °C -5.6 °C 1019.9 hPa West 8 km/h 12.9 km/h 73% 0 mm
16:49 -1.3 °C -5.6 °C 1019.9 hPa NNW 4.8 km/h 9.7 km/h 73% 0 mm
16:54 -1.4 °C -5.6 °C 1019.9 hPa WNW 8 km/h 12.9 km/h 73% 0 mm
16:59 -1.4 °C -5.7 °C 1019.9 hPa West 6.4 km/h 9.7 km/h 73% 0 mm
17:04 -1.4 °C -5.5 °C 1019.9 hPa WNW 4.8 km/h 9.7 km/h 74% 0 mm
17:09 -1.4 °C -5.5 °C 1019.9 hPa NNW 3.2 km/h 8 km/h 74% 0 mm
17:14 -1.4 °C -5.7 °C 1019.9 hPa NW 1.6 km/h 9.7 km/h 73% 0 mm
17:19 -1.4 °C -5.7 °C 1019.9 hPa West 1.6 km/h 9.7 km/h 73% 0 mm
17:24 -1.4 °C -5.6 °C 1019.9 hPa WSW 6.4 km/h 11.3 km/h 73% 0 mm
17:29 -1.4 °C -5.7 °C 1019.9 hPa WSW 3.2 km/h 11.3 km/h 73% 0 mm
17:34 -1.4 °C -5.6 °C 1019.9 hPa West 4.8 km/h 11.3 km/h 73% 0 mm
17:39 -1.4 °C -5.6 °C 1019.5 hPa West 4.8 km/h 12.9 km/h 73% 0 mm
17:44 -1.3 °C -5.6 °C 1019.9 hPa West 4.8 km/h 12.9 km/h 73% 0 mm
17:49 -1.3 °C -5.6 °C 1019.9 hPa West 4.8 km/h 11.3 km/h 73% 0 mm
17:54 -1.4 °C -5.6 °C 1019.5 hPa West 4.8 km/h 11.3 km/h 73% 0 mm
17:59 -1.3 °C -5.6 °C 1019.5 hPa West 8 km/h 9.7 km/h 73% 0 mm
18:04 -1.3 °C -5.6 °C 1019.5 hPa West 4.8 km/h 8 km/h 73% 0 mm
18:09 -1.3 °C -5.7 °C 1019.5 hPa West 4.8 km/h 8 km/h 72% 0 mm
18:14 -1.3 °C -5.7 °C 1019.5 hPa WNW 6.4 km/h 9.7 km/h 72% 0 mm
18:19 -1.3 °C -5.5 °C 1019.5 hPa NNW 4.8 km/h 9.7 km/h 73% 0 mm
18:24 -1.2 °C -5.4 °C 1019.5 hPa West 3.2 km/h 9.7 km/h 73% 0 mm
18:29 -1.2 °C -5.4 °C 1019.5 hPa WNW 4.8 km/h 9.7 km/h 73% 0 mm
18:34 -1.2 °C -5.4 °C 1019.5 hPa WSW 3.2 km/h 8 km/h 73% 0 mm
18:39 -1.2 °C -5.4 °C 1019.5 hPa WSW 4.8 km/h 11.3 km/h 73% 0 mm
18:44 -1.2 °C -5.4 °C 1019.5 hPa West 3.2 km/h 9.7 km/h 73% 0 mm
18:49 -1.1 °C -5.3 °C 1019.5 hPa West 4.8 km/h 11.3 km/h 73% 0 mm
18:54 -1.1 °C -5.3 °C 1019.2 hPa West 8 km/h 12.9 km/h 73% 0 mm
18:59 -1 °C -5.2 °C 1019.2 hPa West 8 km/h 14.5 km/h 73% 0 mm
19:04 -1.1 °C -5.3 °C 1019.2 hPa West 9.7 km/h 11.3 km/h 73% 0 mm
19:09 -1 °C -5.4 °C 1019.2 hPa West 4.8 km/h 16.1 km/h 72% 0 mm
19:14 -1 °C -5.4 °C 1019.2 hPa West 8 km/h 19.3 km/h 72% 0 mm
19:19 -1 °C -5.4 °C 1019.2 hPa West 8 km/h 19.3 km/h 72% 0 mm
19:24 -1 °C -5.4 °C 1019.5 hPa West 6.4 km/h 16.1 km/h 72% 0 mm
19:29 -1.1 °C -5.4 °C 1019.2 hPa WNW 6.4 km/h 12.9 km/h 72% 0 mm
19:34 -1.1 °C -5.4 °C 1019.2 hPa West 6.4 km/h 14.5 km/h 72% 0 mm
19:39 -1.1 °C -5.5 °C 1019.2 hPa West 6.4 km/h 16.1 km/h 72% 0 mm
19:44 -1.1 °C -5.7 °C 1019.2 hPa WSW 12.9 km/h 20.9 km/h 71% 0 mm
19:49 -1.2 °C -5.8 °C 1019.2 hPa West 8 km/h 20.9 km/h 71% 0 mm
19:54 -1.2 °C -5.8 °C 1019.2 hPa West 8 km/h 19.3 km/h 71% 0 mm
19:59 -1.2 °C -5.8 °C 1019.2 hPa West 8 km/h 19.3 km/h 71% 0 mm
20:04 -1.2 °C -5.8 °C 1019.2 hPa West 8 km/h 16.1 km/h 71% 0 mm
20:09 -1.2 °C -5.6 °C 1019.2 hPa West 8 km/h 16.1 km/h 72% 0 mm
20:14 -1.2 °C -5.6 °C 1019.2 hPa West 8 km/h 16.1 km/h 72% 0 mm
20:19 -1.3 °C -5.7 °C 1019.2 hPa West 8 km/h 14.5 km/h 72% 0 mm
20:24 -1.3 °C -5.7 °C 1019.2 hPa WSW 11.3 km/h 12.9 km/h 72% 0 mm
20:29 -1.3 °C -5.7 °C 1019.2 hPa West 9.7 km/h 14.5 km/h 72% 0 mm
20:34 -1.4 °C -5.8 °C 1019.2 hPa WSW 12.9 km/h 22.5 km/h 72% 0 mm
20:39 -1.4 °C -5.8 °C 1018.8 hPa West 8 km/h 16.1 km/h 72% 0 mm
20:44 -1.4 °C -5.8 °C 1018.8 hPa WNW 3.2 km/h 14.5 km/h 72% 0 mm
20:49 -1.6 °C -5.9 °C 1018.8 hPa West 8 km/h 19.3 km/h 72% 0 mm
20:54 -1.7 °C -6.1 °C 1019.2 hPa West 4.8 km/h 12.9 km/h 72% 0 mm
20:59 -1.7 °C -6.1 °C 1019.2 hPa West 6.4 km/h 16.1 km/h 72% 0 mm
21:04 -1.7 °C -6.1 °C 1019.2 hPa West 8 km/h 17.7 km/h 72% 0 mm
21:09 -1.8 °C -6.2 °C 1019.2 hPa West 8 km/h 17.7 km/h 72% 0 mm
21:14 -1.8 °C -6.2 °C 1018.8 hPa West 6.4 km/h 12.9 km/h 72% 0 mm
21:19 -2 °C -6.4 °C 1018.8 hPa West 4.8 km/h 11.3 km/h 72% 0 mm
21:29 -2.2 °C -6.6 °C 1018.8 hPa WSW 4.8 km/h 8 km/h 72% 0 mm
21:34 -2.3 °C -6.4 °C 1018.8 hPa West 4.8 km/h 9.7 km/h 73% 0 mm
21:39 -2.3 °C -6.5 °C 1018.8 hPa West 3.2 km/h 8 km/h 73% 0 mm
21:44 -2.4 °C -6.6 °C 1018.8 hPa West 8 km/h 9.7 km/h 73% 0 mm
21:49 -2.5 °C -6.7 °C 1018.8 hPa West 4.8 km/h 8 km/h 73% 0 mm
21:54 -2.6 °C -6.6 °C 1018.5 hPa WSW 3.2 km/h 6.4 km/h 74% 0 mm
21:59 -2.6 °C -6.6 °C 1018.5 hPa West 1.6 km/h 6.4 km/h 74% 0 mm
22:04 -2.7 °C -6.7 °C 1018.5 hPa WSW 3.2 km/h 6.4 km/h 74% 0 mm
22:09 -2.7 °C -6.7 °C 1018.5 hPa West 6.4 km/h 6.4 km/h 74% 0 mm
22:14 -2.7 °C -6.6 °C 1018.5 hPa West 3.2 km/h 8 km/h 75% 0 mm
22:19 -2.8 °C -6.7 °C 1018.5 hPa West 3.2 km/h 8 km/h 75% 0 mm
22:24 -2.8 °C -6.6 °C 1018.2 hPa West 3.2 km/h 11.3 km/h 75% 0 mm
22:29 -2.8 °C -6.6 °C 1018.2 hPa West 3.2 km/h 11.3 km/h 75% 0 mm
22:34 -2.8 °C -6.7 °C 1018.2 hPa West 3.2 km/h 4.8 km/h 75% 0 mm
22:39 -2.8 °C -6.5 °C 1018.2 hPa West 3.2 km/h 6.4 km/h 76% 0 mm
22:44 -2.9 °C -6.6 °C 1018.2 hPa West 3.2 km/h 6.4 km/h 76% 0 mm
22:49 -2.9 °C -6.6 °C 1018.2 hPa West 3.2 km/h 8 km/h 76% 0 mm
22:54 -3.1 °C -6.7 °C 1018.2 hPa West 3.2 km/h 8 km/h 76% 0 mm
22:59 -3.1 °C -6.6 °C 1017.8 hPa West 1.6 km/h 6.4 km/h 77% 0 mm
23:04 -3.1 °C -6.6 °C 1017.8 hPa West 1.6 km/h 4.8 km/h 77% 0 mm
23:09 -3.1 °C -6.6 °C 1017.8 hPa WSW 1.6 km/h 4.8 km/h 77% 0 mm
23:14 -3.2 °C -6.7 °C 1017.5 hPa WSW 1.6 km/h 4.8 km/h 77% 0 mm
23:19 -3.4 °C -6.7 °C 1017.5 hPa WSW 1.6 km/h 3.2 km/h 78% 0 mm
23:24 -3.7 °C -6.8 °C 1017.5 hPa WSW 1.6 km/h 3.2 km/h 79% 0 mm
23:29 -3.8 °C -6.9 °C 1017.5 hPa Calm   1.6 km/h 79% 0 mm
23:34 -3.9 °C -6.9 °C 1017.5 hPa Calm   1.6 km/h 80% 0 mm
23:39 -4.1 °C -6.8 °C 1017.2 hPa WSW 1.6 km/h 1.6 km/h 81% 0 mm
23:44 -4.2 °C -6.9 °C 1017.2 hPa WSW 1.6 km/h 3.2 km/h 81% 0 mm
23:49 -4.3 °C -7.1 °C 1016.8 hPa Calm   3.2 km/h 81% 0 mm
23:54 -4.4 °C -7.1 °C 1016.8 hPa Calm   4.8 km/h 82% 0 mm
23:59 -4.6 °C -7 °C 1017.2 hPa Calm   1.6 km/h 83% 0 mm
Buffalo, New York, USA
Compliments of Weather Underground - 2.5 mb